Location: Lamothe
(43.8635°N, 0.5567°E)
Time: 18:51:21
(UTC+00:00)

Daily predictions for brighter satellites

Satellite Brightness Start Highest point End
(mag) Time Altitude Azimuth Time Altitude Azimuth Time Altitude Azimuth
Cosmos 2278 Rocket 3.8 20:13:44 10° N 20:18:08 22° NE 20:22:29 10° E
Ariane Rocket 3.2 20:14:59 10° SSE 20:20:05 81° WSW 20:25:13 10° NNW
Cosmos 2322 3.8 20:14:40 10° S 20:20:12 60° ESE 20:25:46 10° NNE
Terra 3.9 20:18:43 10° E 20:20:51 13° ENE 20:22:58 10° NNE
SPOT 1/Viking Rocket 4.2 20:17:16 10° SE 20:22:00 39° ENE 20:26:46 10° N
ATLAS CENTAUR R/B 1.6 20:17:41 10° NW 20:22:05 88° WSW 20:26:44 10° SSE
Cosmos 1900 4.5 20:18:34 10° NW 20:23:28 74° WSW 20:28:18 10° SSE
Cosmos 1975 Rocket 3.2 20:20:12 10° S 20:24:33 83° W 20:29:00 10° N
COSMOS 2428 3.0 20:21:11 10° S 20:26:38 47° ESE 20:32:06 10° NE
Cosmos 968 Rocket 4.3 20:24:21 10° N 20:29:06 36° ENE 20:33:50 10° SE
Cosmos 1953 2.4 20:27:52 10° N 20:31:58 84° W 20:36:00 10° S
Cosmos 1727 Rocket 4.5 20:27:43 10° SSW 20:33:58 66° W 20:40:12 10° N
IGS 5A 3.5 20:30:56 10° SSE 20:35:04 86° E 20:39:16 10° NNW
ATLAS 3B R/B 2.7 20:30:27 10° SW 20:37:00 89° NW 20:43:47 10° NE
Cosmos 1908 3.3 20:33:49 10° N 20:37:41 78° W 20:41:30 10° S
Cosmos 1459 Rocket 4.0 20:39:29 10° N 20:45:35 89° W 20:51:41 10° S
SPOT 5 4.0 20:43:25 11° SE 20:47:29 30° ENE 20:51:38 10° N
Landsat 7 3.9 20:42:57 10° SSE 20:47:42 83° WSW 20:52:30 10° NNW
OBJECT-B 3.9 20:50:29 10° WSW 20:51:22 11° W 20:52:14 10° WNW
SPOT 3 Rocket 3.7 20:47:00 10° S 20:52:11 79° WSW 20:57:25 10° NNW
ATLAS 2A CENTAUR R/B 4.1 20:44:42 10° SW 20:57:49 23° SSW 21:02:14 14° SSE
Cosmos 2219 Rocket 2.4 20:53:48 10° SSW 20:59:29 80° WNW 21:05:12 10° NNE
Resurs 01 Rocket 2.4 20:56:51 10° S 21:01:06 48° W 21:05:23 10° NNW
Cosmos 1802 Rocket 4.1 20:55:01 10° N 21:01:22 84° W 21:07:45 10° S
Cosmos 1867 3.6 20:56:22 10° NNW 21:01:52 76° NE 21:06:16 16° SE
Cosmos 1544 Rocket 4.1 21:01:31 10° NNW 21:05:55 60° W 21:10:14 10° S
ERS-1 Rocket 3.4 21:03:38 16° SE 21:07:27 47° ENE 21:12:17 10° N
Cosmos 405 3.0 21:05:22 10° NNW 21:08:49 74° W 21:11:33 15° S
X-37B 0.6 21:08:08 10° WSW 21:11:15 54° SSE 21:14:22 10° E
Cosmos 1346 Rocket 3.2 21:14:20 19° SSE 21:16:51 44° E 21:20:42 10° NNE
Cosmos 2333 Rocket 3.2 21:12:14 10° SW 21:17:48 51° WNW 21:23:23 10° NNE
Cosmos 1025 Rocket 4.5 21:16:59 10° SW 21:21:03 37° WNW 21:25:07 10° N
Cosmos 1455 3.9 21:18:17 10° NNE 21:21:10 20° ENE 21:22:38 16° ESE
Spot 2 Rocket 3.5 21:19:22 16° SSE 21:23:25 85° WSW 21:28:33 10° NNW
JB-3 4.5 21:20:31 10° N 21:24:33 78° WNW 21:28:39 10° SSW
Cosmos 2228 3.5 21:20:20 10° N 21:24:37 48° ENE 21:27:02 23° SE
H-2A R/B 4.4 21:21:42 10° NE 21:25:18 29° E 21:26:46 23° SE
CZ-2C R/B 4.5 21:20:44 10° N 21:25:26 57° WNW 21:30:04 10° SSW
Cosmos 2237 Rocket 2.3 21:21:26 10° S 21:26:47 52° ESE 21:32:15 10° NE
Cosmos 1340 4.2 21:24:16 10° SW 21:27:45 36° WNW 21:31:16 10° N
SL-16 R/B 3.6 21:26:40 17° ESE 21:28:04 19° E 21:31:51 10° ENE
SL-4 R/B 2.7 21:25:51 10° WSW 21:30:04 56° NNW 21:33:58 10° NE
Cosmos 2123 Rocket 4.5 21:27:08 10° SSW 21:33:22 63° W 21:39:40 10° N
Cosmos 2233 Rocket 4.0 21:27:37 10° N 21:33:49 83° E 21:38:24 19° S
Cosmos 1607 4.1 21:27:58 10° NNW 21:34:23 71° NE 21:38:39 22° SE
Cosmos 1300 3.4 21:30:51 10° NNW 21:34:33 50° W 21:37:14 17° SSW
ARIANE 5 R/B 2.8 21:33:34 20° S 21:36:39 69° WSW 21:41:11 10° NNW
DELTA 2 R/B (1) 4.4 21:36:03 10° SSW 21:40:32 26° SSE 21:41:38 24° SE
Lacrosse 5 rocket 4.3 21:41:52 10° NW 21:43:34 13° NNW 21:45:16 10° NNE
Meteor 2-5 Rocket 4.2 21:38:07 10° SSW 21:43:36 60° WNW 21:49:12 10° N
Cosmos 1447 Rocket 4.4 21:39:00 17° S 21:43:58 77° E 21:50:08 10° N
Meteor 2-10 Rocket 3.4 21:39:40 10° N 21:44:44 89° E 21:47:42 25° S
CARTOSAT-1 4.4 21:46:43 18° SSW 21:49:38 45° W 21:53:48 10° NNW
Cosmos 1503 Rocket 4.0 21:48:48 10° NNW 21:54:13 85° ENE 21:57:02 29° SSE
ATLAS CENTAUR R/B 3.1 21:52:00 25° S 21:54:20 47° ESE 22:03:24 10° NE
Terra 1.8 21:55:24 28° S 21:57:54 83° WSW 22:02:41 10° NNW
Meteor 1-24 Rocket 4.3 21:53:48 10° SSW 21:59:04 54° WNW 22:04:33 10° N
ATLAS CENTAUR R/B 4.2 21:59:17 10° W 22:00:22 11° WSW 22:01:28 10° WSW
CZ-4B DEB 4.1 22:00:18 53° S 22:00:58 85° WSW 22:04:08 10° NNW
Cosmos 2278 Rocket 2.4 21:57:06 10° NNW 22:02:44 67° WSW 22:05:45 28° S
Cosmos 1943 Rocket 3.4 22:04:36 10° N 22:09:27 30° NE 22:12:41 18° ESE
Cosmos 192 4.3 22:11:59 21° SSW 22:15:18 82° WNW 22:20:15 10° NNE
Cosmos 389 Rocket 3.8 22:14:51 10° NNW 22:17:58 32° W 22:19:05 26° SW
Celestis-02/Orion 38 4.5 22:17:42 35° SSE 22:19:56 89° ENE 22:25:09 10° NNW
Cosmos 1184 Rocket 2.7 22:20:41 62° SW 22:21:06 76° W 22:24:21 10° N
SPOT 5 4.2 22:22:38 19° SSW 22:25:29 32° W 22:29:48 10° NNW
Cosmos 1464 Rocket 4.0 22:23:13 10° N 22:29:39 82° E 22:32:40 34° SSE
Cosmos 1726 Rocket 4.1 22:26:34 10° NNW 22:30:53 51° W 22:32:32 33° SSW
USA 229 DEB 4.0 22:30:08 33° SSE 22:31:53 40° ESE 22:38:03 10° NE
Cosmos 1441 Rocket 3.0 22:31:15 59° S 22:31:55 86° E 22:35:43 10° N
USA 229 4.1 22:30:17 33° SSE 22:32:00 39° ESE 22:38:09 10° NE
Cosmos 1777 Rocket 4.0 22:28:44 10° NNW 22:34:04 80° ENE 22:35:58 41° SSE
SJ 16-02 2.1 22:33:02 10° N 22:37:13 41° ENE 22:38:21 34° ESE
Iridium 2 4.4 22:36:17 34° SW 22:37:24 45° W 22:41:01 10° N
NOSS 3-1 (C) 3.1 22:35:28 34° S 22:37:44 65° ESE 22:43:46 10° NE
Cosmos 2058 Rocket 3.2 22:37:53 10° NNW 22:42:16 64° W 22:43:26 45° SSW
Okean 1-7 Rocket 3.5 22:42:02 46° SSW 22:43:18 81° W 22:47:45 10° N
Cosmos 1816 Rocket 4.5 22:43:18 38° SSE 22:45:41 66° E 22:51:45 10° NNE
X-37B 1.0 22:44:43 10° W 22:47:29 59° NW 22:47:29 59° NW
NOSS 2-3 (E) 3.4 22:49:22 60° SSE 22:49:46 64° ESE 22:54:21 10° NE
NOSS 3-1 (A) 3.4 22:50:45 42° SSE 22:51:42 47° ESE 22:57:27 10° NE
Meteor 1-21 Rocket 4.4 22:49:05 30° SSW 22:51:56 69° WNW 22:57:43 10° N
USA 215 3.4 22:50:19 10° ENE 22:56:36 48° SE 22:58:45 36° S
Cosmos 1455 3.7 22:53:30 10° NNW 22:56:45 27° W 22:57:31 25° WSW
Cosmos 1703 4.2 23:02:32 35° WSW 23:03:31 43° WNW 23:07:18 10° N
Cosmos 2034 Rocket 4.0 23:02:18 10° NNW 23:08:28 72° W 23:10:49 39° SSW
Meteor 1-4 Rocket 2.7 23:05:22 10° NNW 23:08:33 60° WNW 23:08:33 60° WNW
Spot 4 3.8 23:09:05 54° S 23:10:08 78° WSW 23:14:56 10° NNW
SL-4 R/B 4.1 23:06:44 10° WNW 23:10:12 26° N 23:13:26 10° NE
Cosmos 2237 Rocket 4.1 23:06:27 10° WSW 23:11:09 27° NW 23:15:53 10° N
SL-16 R/B 2.4 23:08:29 27° SW 23:11:35 67° WNW 23:17:15 10° NNE
GP-B 3.6 23:10:19 10° NNE 23:14:35 43° E 23:15:02 42° ESE
Cosmos 1626 Rocket 4.0 23:18:01 44° SW 23:19:02 55° W 23:23:24 10° N
Cosmos 2369 Rocket 2.7 23:13:48 10° NNW 23:19:26 55° ENE 23:21:44 33° ESE
USA 308 4.3 23:22:32 26° E 23:22:32 26° E 23:24:46 10° ENE
ALOS 2 2.5 23:21:22 66° SE 23:21:58 81° ENE 23:26:22 10° N
Cosmos-2242 3.3 23:18:13 10° N 23:22:33 55° E 23:23:04 52° ESE
Lacrosse 5 rocket 4.4 23:22:56 10° N 23:24:04 11° N 23:25:12 10° NNE
DELTA 2 R/B (1) 4.4 23:21:00 10° WSW 23:28:35 32° ESE 23:31:42 10° E
Cosmos 1602 Rocket 3.9 23:28:09 51° SW 23:28:59 61° W 23:33:26 10° N
FALCON 9 DEB 4.3 23:26:25 10° NW 23:29:40 39° NNE 23:30:16 35° NE
USA 267 4.2 23:23:44 10° E 23:29:54 46° NNE 23:36:06 10° NW
Cosmos 468 Rocket 4.1 23:29:09 52° SE 23:29:58 58° ESE 23:35:06 10° NNE
NOSS 2-3 (D) 3.9 23:29:39 38° WSW 23:31:00 60° NW 23:35:42 10° NNE
USA 305 3.6 23:36:40 42° E 23:36:40 42° E 23:39:49 10° ENE
Cosmos 1763 Rocket 3.4 23:35:39 56° SSE 23:36:26 65° ESE 23:41:33 10° NNE
Cosmos 1758 Rocket 3.4 23:37:04 70° SSW 23:37:32 83° W 23:41:57 10° N
Tsikada Rocket 4.3 23:39:33 34° SW 23:42:05 57° W 23:48:10 10° N
Cosmos 1408 3.1 23:42:43 50° ENE 23:42:43 50° ENE 23:45:55 10° NNE
Cosmos 2263 4.5 23:39:04 10° NNW 23:44:43 63° ENE 23:46:48 38° SE
Cosmos 2221 4.0 23:48:35 10° NNE 23:52:13 26° ENE 23:53:10 24° E
Cosmos 1943 Rocket 2.7 23:48:09 10° NW 23:53:18 43° WSW 23:54:11 40° SW
